Regional Weather Roundup
Issued by NWS Sioux Falls, SD

Home | Current Version | Previous Version | Graphics & Text | Print | Product List | Glossary Off
Versions: 1 2 3 4 5 6 7 8 9 10 11 12 13 14 15 16 17 18 19 20 21 22 23 24 25 26 27 28 29 30 31 32 33 34 35 36 37 38 39 40 41 42 43 44 45 46 47 48 49 50

000
ASUS43 KFSD 190802
RWRFSD

WEATHER ROUNDUP FOR SE SOUTH DAKOTA/SW MINNESOTA/NW IOWA
NATIONAL WEATHER SERVICE SIOUX FALLS SD
300 AM CDT THU APR 19 2018

NOTE: "FAIR" INDICATES FEW OR NO CLOUDS BELOW 12,000 FEET WITH NO
SIGNIFICANT WEATHER AND OR OBSTRUCTIONS TO VISIBILITY.


SDZ038>040-050-052>070-190900-
SOUTHEAST SOUTH DAKOTA

CITY           SKY/WX    TMP DP  RH WIND       PRES   REMARKS
BROOKINGS      CLOUDY    32  28  85 N3        30.32R
CHAMBERLAIN    CLEAR     33  31  95 CALM      30.34R
HURON          CLEAR     28  26  92 CALM      30.34R
MADISON        FAIR      28  28 100 NW10      30.32R WCI  19
MITCHELL       CLEAR     31  28  89 NW5       30.35R WCI  26
SIOUX FALLS    CLEAR     30  24  78 N7        30.32R WCI  23
WINNER         FAIR      30  26  85 W5        30.34R WCI  25
YANKTON        CLEAR     31  30  96 NW10      30.32R WCI  22
$$

MNZ071-072-080-081-089-090-097-098-190900-
SOUTHWEST MINNESOTA

CITY           SKY/WX    TMP DP  RH WIND       PRES   REMARKS
FAIRMONT       CLOUDY    26  21  81 N10       30.30R WCI  16
JACKSON        CLOUDY    28  23  80 NW9       30.29R WCI  20
LUVERNE        CLOUDY    30  21  69 N3        30.31R
MARSHALL       CLOUDY    28  24  85 CALM      30.33R
MONTEVIDEO     CLOUDY    28  23  80 CALM      30.34R
PIPESTONE      CLEAR    N/A N/A N/A CALM      30.30R
REDWOOD FALLS  MOCLDY    30  17  58 W5        30.32R WCI  25
WINDOM           N/A     27  10  50 N12       30.30R WCI  16
WORTHINGTON    PTCLDY    23  19  85 N14       30.29R WCI  11
$$

IAZ001>003-012>014-020>022-031-032-NEZ013-014-SDZ071-190900-
NORTHWEST IOWA

CITY           SKY/WX    TMP DP  RH WIND       PRES   REMARKS
CHEROKEE       CLEAR     30  29  96 N6        30.29R WCI  24
DENISON        PTCLDY    30  30 100 CALM      30.29S
ESTHERVILLE    PTCLDY    28  20  71 NW10      30.28R WCI  19
LE MARS        CLEAR     30  28  93 CALM      30.30R
ORANGE CITY    CLEAR     32  28  86 N8        30.29R WCI  25
SHELDON        CLEAR     28  25  86 N12       30.28R WCI  18
SIOUX CITY     CLEAR     32  29  88 NW6       30.30S WCI  26
SPENCER        CLOUDY    28  22  78 N10       30.28R WCI  19
STORM LAKE     CLEAR     28  28 100 NW12      30.27R WCI  18
$$

ABBREVIATIONS USED IN REMARKS
   TC - TEMPERATURE IN CELSIUS
  WCI - WIND CHILL INDEX
   HX - HEAT INDEX
  VSB - VISIBILITY





USA.gov is the U.S. government's official web portal to all federal, state and local government web resources and services.